Вернуться в каталог

STARLINK-3254

АктивенСвязьVLEO
NORAD 50204·PAYLOAD·🇺🇸 United States

Запущен Dec 18, 2021 с Vandenberg Space Force Base

Loading…

Ближайшие Пролёты (ближайшие 24 часа)

TLE

СвежийSource: CelesTrak SupGP

Эпоха: Sep 14, 2026, 20:55 UTC

1 50204C 21125BA  26257.87201389 -.00000528  00000+0 -16962-4 0  2573
2 50204  53.1578  99.1466 0001298  78.4551 204.6199 15.31703512    17

Отслеживайте STARLINK-3254 в реальном времени с AllMySat

Download on the App Store